This is the latest recevied weather packets stored in our database for station/object DL9GRB-13. If no packets are shown the sender has not sent any weather packets the latest 10 day(s).
| Time | Temp. | Humidity | Pressure | Rain* | Wind** | Luminosity | Snow |
|---|---|---|---|---|---|---|---|
| 1777553946 | 17.22° C | 38% | 1030.5 hPa | 0 mm | - | 681 W/m² | - |
| 1777553766 | 17.22° C | 39% | 1030.5 hPa | 0 mm | - | 673 W/m² | - |
| 1777553406 | 17.22° C | 38% | 1030.7 hPa | 0 mm | - | 684 W/m² | - |
| 1777552506 | 17.22° C | 38% | 1030.8 hPa | 0 mm | - | 685 W/m² | - |
| 1777552326 | 17.22° C | 37% | 1030.8 hPa | 0 mm | - | 678 W/m² | - |
| 1777552146 | 17.22° C | 39% | 1030.9 hPa | 0 mm | - | 682 W/m² | - |
| 1777551966 | 17.22° C | 38% | 1030.8 hPa | 0 mm | - | 591 W/m² | - |
| 1777551786 | 17.22° C | 38% | 1030.8 hPa | 0 mm | - | 656 W/m² | - |
| 1777551606 | 17.22° C | 38% | 1030.7 hPa | 0 mm | - | 722 W/m² | - |
| 1777551066 | 17.22° C | 38% | 1030.9 hPa | 0 mm | - | 741 W/m² | - |
| 1777550886 | 17.22° C | 38% | 1030.8 hPa | 0 mm | - | 744 W/m² | - |
| 1777550526 | 16.67° C | 39% | 1031 hPa | 0 mm | - | 750 W/m² | - |
| 1777550346 | 16.67° C | 40% | 1031 hPa | 0 mm | - | 750 W/m² | - |
| 1777550166 | 17.22° C | 39% | 1030.9 hPa | 0 mm | - | 747 W/m² | - |
| 1777549806 | 16.67° C | 39% | 1030.8 hPa | 0 mm | - | 732 W/m² | - |
| 1777549626 | 17.22° C | 38% | 1031.2 hPa | 0 mm | - | 736 W/m² | - |
| 1777549446 | 17.22° C | 37% | 1030.9 hPa | 0 mm | - | 755 W/m² | - |
| 1777549086 | 17.22° C | 39% | 1030.9 hPa | 0 mm | - | 766 W/m² | - |
| 1777548906 | 17.22° C | 38% | 1030.9 hPa | 0 mm | - | 772 W/m² | - |
| 1777548726 | 17.22° C | 39% | 1031 hPa | 0 mm | - | 766 W/m² | - |
| 1777548546 | 17.22° C | 38% | 1030.9 hPa | 0 mm | - | 735 W/m² | - |
| 1777548366 | 17.22° C | 37% | 1030.9 hPa | 0 mm | - | 741 W/m² | - |
| 1777548186 | 17.22° C | 38% | 1031 hPa | 0 mm | - | 743 W/m² | - |
| 1777548006 | 17.22° C | 38% | 1030.9 hPa | 0 mm | - | 752 W/m² | - |
| 1777547826 | 17.22° C | 37% | 1030.8 hPa | 0 mm | - | 641 W/m² | - |
* Rain latest hour (hover to see other rain measurements)
** Current wind speed in m/s (hover to see current wind gust speed)